Walbridge, OH

4:57 PM EDT on September 29, 2016 (GMT -0400)
Metcalf

Weather History for KTDZ - September, 2013

Change the Weather History Date:

Thursday, September 26, 2013

  Actual Average (KTOL) Record (KTOL)
Temperature  
Mean Temperature 62 °F 60 °F  
Max Temperature 73 °F 71 °F 92 °F (1998)
Min Temperature 51 °F 48 °F 32 °F (1940)
Degree Days  
Heating Degree Days 3 6  
Month to date heating degree days 80  
Since 1 July heating degree days 94  
Cooling Degree Days 0 1  
Month to date cooling degree days 77  
Year to date cooling degree days 779  
Growing Degree Days 12 (Base 50)    
Moisture  
Dew Point 51 °F    
Average Humidity 77    
Maximum Humidity 94    
Minimum Humidity 37    
Precipitation  
Precipitation 0.01 in 0.09 in 1.50 in (1976)
Month to date precipitation 2.43  
Year to date precipitation 25.75  
Snow  
Snow 0.00 in 0.00 in - ()
Month to date snowfall 0.0  
Since 1 July snowfall 0.0  
Since 1 September snowfall 0.0  
Snow Depth -    
Sea Level Pressure  
Sea Level Pressure 30.07 in    
Wind  
Wind Speed 5 mph (NNE)    
Max Wind Speed 9 mph    
Max Gust Speed -    
Visibility 7 miles    
Events      
T = Trace of Precipitation, MM = Missing Value Source: NWS Daily Summary

Daily Weather History Graph

Daily Weather History Graph

Search for Another Location

Airport or City:

Trip Planner

Search our weather history database for the weather conditions in past years. The results will help you decide how hot, cold, wet, or windy it might be!

Date:

Astronomy

Sep. 26, 2013 Rise Set
Actual Time 7:25 AM EDT 7:23 PM EDT
Civil Twilight 6:58 AM EDT 7:51 PM EDT
Nautical Twilight 6:25 AM EDT 8:23 PM EDT
Astronomical Twilight 5:52 AM EDT 8:56 PM EDT
Moon No Moon Rise 2:20 PM EDT (9/26)
Length of Visible Light 12h 53m
Length of Day
11h 58m
Waning Gibbous, 55% of the Moon is Illuminated
Sep 26
Waning Gibbous
Sep 26
Last Quarter
Oct 4
New
Oct 11
First Quarter
Oct 18
Full

Hourly Weather History & Observations

Time (EDT) Temp. Dew Point Humidity Pressure Visibility Wind Dir Wind Speed Gust Speed Precip Events Conditions
12:53 AM 57.9 °F 51.1 °F 78% 29.99 in 10.0 mi NNE 6.9 mph - N/A   Clear
1:53 AM 55.0 °F 51.1 °F 86% 29.99 in 10.0 mi North 4.6 mph - N/A   Clear
2:53 AM 57.0 °F 54.0 °F 89% 29.99 in 10.0 mi NNE 5.8 mph - N/A   Clear
3:53 AM 55.9 °F 53.1 °F 90% 30.00 in 10.0 mi North 5.8 mph - N/A   Clear
4:53 AM 55.9 °F 53.1 °F 90% 30.01 in 10.0 mi North 4.6 mph - N/A   Clear
5:32 AM 51.8 °F 50.0 °F 94% 30.02 in 1.8 mi NNW 4.6 mph - N/A   Partly Cloudy
5:43 AM 51.8 °F 50.0 °F 94% 30.02 in 3.0 mi North 4.6 mph - N/A   Partly Cloudy
5:53 AM 53.1 °F 51.1 °F 93% 30.02 in 3.0 mi North 4.6 mph - N/A   Partly Cloudy
6:01 AM 53.6 °F 51.8 °F 94% 30.03 in 2.5 mi North 4.6 mph - N/A   Clear
6:10 AM 53.6 °F 51.8 °F 94% 30.03 in 4.0 mi North 4.6 mph - 0.01 in   Clear
6:53 AM 53.1 °F 51.1 °F 93% 30.04 in 3.0 mi North 3.5 mph - 0.01 in   Partly Cloudy
7:10 AM 53.6 °F 51.8 °F 94% 30.05 in 3.0 mi North 3.5 mph - N/A   Mostly Cloudy
7:40 AM 51.8 °F 50.0 °F 94% 30.06 in 2.5 mi North 4.6 mph - N/A   Scattered Clouds
7:53 AM 52.0 °F 50.0 °F 93% 30.06 in 2.5 mi North 3.5 mph - N/A   Partly Cloudy
8:11 AM 53.6 °F 51.8 °F 94% 30.07 in 1.8 mi North 5.8 mph - N/A   Clear
8:20 AM 53.6 °F 51.8 °F 94% 30.07 in 2.0 mi North 4.6 mph - N/A   Clear
8:36 AM 55.4 °F 51.8 °F 88% 30.07 in 3.0 mi North 3.5 mph - N/A   Clear
8:53 AM 57.0 °F 54.0 °F 89% 30.08 in 5.0 mi North 5.8 mph - N/A   Clear
9:53 AM 62.1 °F 55.9 °F 80% 30.09 in 10.0 mi NNE 4.6 mph - N/A   Clear
10:53 AM 66.9 °F 57.9 °F 73% 30.10 in 10.0 mi NNE 6.9 mph - N/A   Clear
11:53 AM 69.1 °F 55.9 °F 63% 30.10 in 10.0 mi ENE 6.9 mph - N/A   Clear
12:53 PM 72.0 °F 53.1 °F 51% 30.09 in 10.0 mi ENE 8.1 mph - N/A   Clear
1:53 PM 72.0 °F 52.0 °F 49% 30.09 in 10.0 mi NE 9.2 mph - N/A   Clear
2:53 PM 73.0 °F 46.9 °F 39% 30.08 in 10.0 mi ENE 9.2 mph - N/A   Clear
3:53 PM 72.0 °F 44.1 °F 37% 30.09 in 10.0 mi ENE 9.2 mph - N/A   Clear
4:53 PM 72.0 °F 45.0 °F 38% 30.09 in 10.0 mi NE 9.2 mph - N/A   Clear
5:53 PM 71.1 °F 45.0 °F 39% 30.09 in 10.0 mi ENE 8.1 mph - N/A   Clear
6:53 PM 68.0 °F 46.9 °F 47% 30.10 in 10.0 mi NE 4.6 mph - N/A   Clear
7:53 PM 63.0 °F 51.1 °F 65% 30.11 in 10.0 mi NE 3.5 mph - N/A   Clear
8:53 PM 61.0 °F 50.0 °F 67% 30.12 in 10.0 mi ENE 3.5 mph - N/A   Clear
9:53 PM 54.0 °F 48.0 °F 80% 30.14 in 10.0 mi Calm Calm - N/A   Clear
10:53 PM 54.0 °F 48.9 °F 83% 30.14 in 10.0 mi Calm Calm - N/A   Clear
11:53 PM 52.0 °F 48.9 °F 89% 30.14 in 10.0 mi Calm Calm - N/A   Clear